Content
SEND FEEDBACK

Daily
Averages
Monthly
Summary
United States of America

FRANKLIN, KENTUCKY


Home > North America > United States > Kentucky
Elevation: 69 feet     Latitude: 36 43N     Longitude: 086 34W

WEATHER
 
SELECT A DAY
Number of Records: 207,949;   Date Range: 1/1/95 - 9/29/14
 
SHARE

PRINT THIS DATA

[ ← Previous Day ]
WEATHER ALMANAC - FEBRUARY 13, 2013
[ Next Day → ]
[ °C ]   °F
Weather ElementAverageHighLow
Temperature39.1 °F44.1 °F (2:53 am)35.1 °F (10:53 pm)
Dewpoint33.3 °F35.6 °F (8:03 am)30.9 °F (3:53 am)
Humidity80.3 %89 % (10:53 pm)60 % (3:53 am)
Barometer29.88 in30.01 in (10:53 pm)29.76 in (3:53 am)
Wind Speed5.6 mph10.4 mph (5:53 am)
Wind Gust17.3 mph (9:53 am)
Weather ElementAverage
Visibility8.6 mi
Wind DirectionSSW (198.1 °)

Weather ElementTotal
Precipitation0.18 in
Heating Degree Days25.4 (Base 65)
Averaged from 32 records on February 13, 2013
WEATHER CONDITIONS BREAKOUT
WIND DIRECTION BREAKOUT
WEATHER BY HOUR - FEBRUARY 13, 2013
[ °C ]   °F
Local TimeTemperatureDewpointHumidityBarometerVisibilityWind DirectionWind SpeedGust SpeedPrecipitationEventsConditions
1:53 AM43.0 °F32.0 °F65 %29.81 in10.0 miENE (60°)5.8 mphOvercast
2:53 AM44.1 °F32.0 °F63 %29.79 in10.0 miCalm0.00 inOvercast
3:53 AM44.1 °F30.9 °F60 %29.76 in10.0 miNNE (20°)6.9 mph0.00 inOvercast
4:53 AM42.1 °F34.0 °F73 %29.78 in10.0 miCalm0.02 inRainLight Rain
5:42 AM39.2 °F33.8 °F81 %29.79 in6.0 miNorth (360°)5.8 mph0.03 inRainLight Rain
5:53 AM39.9 °F33.1 °F77 %29.80 in8.0 miNorth (10°)10.4 mph0.04 inRainLight Rain
6:53 AM37.9 °F34.0 °F86 %29.81 in5.0 miNorth (10°)6.9 mph0.06 inRainLight Rain
7:53 AM39.0 °F35.1 °F86 %29.80 in6.0 miNNE (30°)5.8 mph0.01 inOvercast
8:03 AM39.2 °F35.6 °F87 %29.80 in6.0 miNorth (10°)3.5 mphOvercast
8:44 AM39.2 °F33.8 °F81 %29.83 in8.0 miNorth (350°)6.9 mphOvercast
8:53 AM39.9 °F34.0 °F79 %29.83 in8.0 miNorth (360°)6.9 mph0.00 inRainLight Rain
9:53 AM37.9 °F33.1 °F83 %29.86 in6.0 miNorth (350°)6.9 mph17.3 mph0.00 inRainLight Rain
10:21 AM37.4 °F33.8 °F87 %29.87 in5.0 miNorth (350°)6.9 mph0.00 inRainLight Rain
10:51 AM37.4 °F33.8 °F87 %29.86 in9.0 miNorth (360°)9.2 mph16.1 mph0.01 inOvercast
10:53 AM37.9 °F33.1 °F83 %29.87 in9.0 miNorth (10°)10.4 mph0.01 inOvercast
11:23 AM37.4 °F33.8 °F87 %29.88 in9.0 miNNW (340°)8.1 mph0.00 inRainLight Rain
11:53 AM37.9 °F34.0 °F86 %29.89 in9.0 miNNW (330°)5.8 mph0.00 inOvercast
12:53 PM39.0 °F34.0 °F82 %29.90 in7.0 miNNW (330°)6.9 mph0.00 inOvercast
1:46 PM39.2 °F33.8 °F81 %29.89 in10.0 miNNW (340°)4.6 mphOvercast
1:53 PM39.9 °F33.1 °F77 %29.90 in10.0 miNW (310°)6.9 mphOvercast
2:53 PM39.9 °F34.0 °F79 %29.90 in10.0 miWest (270°)3.5 mphOvercast
3:53 PM41.0 °F34.0 °F76 %29.91 in10.0 miWSW (250°)6.9 mphOvercast
4:53 PM41.0 °F33.1 °F73 %29.93 in10.0 miWest (260°)6.9 mphOvercast
5:53 PM39.9 °F33.1 °F77 %29.95 in10.0 miWSW (240°)4.6 mphOvercast
6:53 PM41.0 °F34.0 °F76 %29.96 in10.0 miSW (220°)4.6 mphOvercast
7:53 PM39.0 °F33.1 °F79 %29.97 in10.0 miCalmScattered Clouds
8:12 PM37.4 °F32.0 °F81 %29.97 in10.0 miSouth (190°)3.5 mphMostly Cloudy
8:53 PM37.0 °F33.1 °F86 %29.99 in10.0 miSSW (200°)4.6 mphOvercast
9:26 PM35.6 °F32.0 °F87 %29.98 in9.0 miSSW (200°)5.8 mphPartly Cloudy
9:53 PM36.0 °F32.0 °F86 %30.00 in8.0 miSouth (190°)4.6 mphClear
10:53 PM35.1 °F32.0 °F89 %30.01 in8.0 miSSW (200°)3.5 mphClear
11:53 PM35.1 °F32.0 °F89 %30.01 in10.0 miSouth (190°)5.8 mphClear
Hourly data recorded from KBWG, located miles away from Franklin, Kentucky







STORIES FROM OUR PARTNERS